Buenos Aires, Argentina

10:40 AM America on June 20, 2018 (GMT +0000)
Jorge Newbery Aeroparque

Weather History for SABE - December, 2017

Change the Weather History Date:

Thursday, December 7, 2017

  Actual Average Record
Temperature  
Mean Temperature 74 °F -  
Max Temperature 82 °F 81 °F 90 °F (2016)
Min Temperature 66 °F 67 °F 55 °F (1999)
Cooling Degree Days 9    
Growing Degree Days 24 (Base 50)    
Moisture  
Dew Point 63 °F    
Average Humidity 70    
Maximum Humidity 88    
Minimum Humidity 36    
Precipitation  
Precipitation 0.00 in 0.13 in - ()
Sea Level Pressure  
Sea Level Pressure 29.81 in    
Wind  
Wind Speed 6 mph ()    
Max Wind Speed 17 mph    
Max Gust Speed 30 mph    
Visibility 5.8 miles    
Events Rain , Thunderstorm    
Averages and records for this station are not official NWS values.
T = Trace of Precipitation, MM = Missing Value Source: Averaged Metar Reports

Daily Weather History Graph

Daily Weather History Graph

Search for Another Location

Airport or City:

Astronomy

Dec. 07, 2017 Rise Set
Actual Time 5:33 AM -03 7:57 PM -03
Civil Twilight 5:04 AM -03 8:26 PM -03
Nautical Twilight 4:28 AM -03 9:02 PM -03
Astronomical Twilight 3:49 AM -03 9:41 PM -03
Moon 11:51 PM -03 (12/7) 9:44 AM -03 (12/7)
Length of Visible Light 15h 21m
Length of Day
14h 23m
Waning Gibbous, 79% of the Moon is Illuminated
Dec 7
Waning Gibbous
Dec 10
Last Quarter
Dec 18
New
Dec 26
First Quarter
Jan 1
Full

Hourly Weather History & Observations

Time (-03) Temp. Heat Index Dew Point Humidity Pressure Visibility Wind Dir Wind Speed Gust Speed Precip Events Conditions
12:00 AM 75 °F - 69 °F 77% 29.83 in 6 mi ESE 2.3 mph - -   Scattered Clouds
12:00 AM 75.2 °F - 69.8 °F 83% 29.80 in 6.2 mi ENE 1.2 mph - N/A   Partly Cloudy
12:30 AM 75.2 °F - 62.6 °F 65% 29.86 in 6.2 mi SW 8.1 mph 25.3 mph N/A   Mostly Cloudy
12:45 AM 68.0 °F - 62.6 °F 83% 29.86 in 1.2 mi South 13.8 mph 29.9 mph N/A Rain , Thunderstorm Thunderstorms and Rain
1:00 AM 68.0 °F - 62.6 °F 83% 29.86 in 5.0 mi South 15.0 mph - N/A Rain , Thunderstorm Thunderstorms and Rain
2:00 AM 66.2 °F - 59.0 °F 78% 29.83 in - ESE 4.6 mph - N/A   Clear
3:00 AM 66 °F - 62 °F 83% 29.83 in 6 mi West 2.3 mph - -   Partly Cloudy
3:00 AM 66.2 °F - 62.6 °F 88% 29.80 in - Variable 2.3 mph - N/A   Clear
4:00 AM 68.0 °F - 62.6 °F 83% 29.80 in - West 3.5 mph - N/A   Clear
5:00 AM 68.0 °F - 62.6 °F 83% 29.80 in - Variable 2.3 mph - N/A   Clear
6:00 AM 69 °F - 62 °F 71% 29.84 in 6 mi NW 2.3 mph - -  
6:00 AM 69.8 °F - 60.8 °F 73% 29.83 in - NW 2.3 mph - N/A   Clear
7:00 AM 71.6 °F - 59.0 °F 64% 29.83 in - SW 4.6 mph - N/A   Clear
8:00 AM 73.4 °F - 57.2 °F 57% 29.86 in - South 3.5 mph - N/A   Clear
9:00 AM 75 °F - 58 °F 46% 29.86 in 6 mi South 3.5 mph - -  
9:00 AM 75.2 °F - 59.0 °F 57% 29.86 in - South 3.5 mph - N/A   Clear
10:00 AM 77.0 °F - 59.0 °F 54% 29.83 in - SW 5.8 mph - N/A   Clear
11:00 AM 80.6 °F 81.1 °F 59.0 °F 48% 29.83 in - WSW 4.6 mph - N/A   Clear
12:00 PM 82 °F - 60 °F 36% 29.83 in 6 mi Calm Calm - -  
12:00 PM 82.4 °F 82.5 °F 59.0 °F 45% 29.83 in - Calm Calm - N/A   Clear
1:00 PM 78.8 °F - 64.4 °F 61% 29.80 in - East 11.5 mph - N/A   Clear
2:00 PM 78.8 °F - 66.2 °F 65% 29.80 in - ENE 11.5 mph - N/A   Clear
3:00 PM 79 °F - 66 °F 57% 29.80 in 6 mi East 12.7 mph - -  
3:00 PM 78.8 °F - 66.2 °F 65% 29.80 in - East 12.7 mph - N/A   Clear
4:00 PM 78.8 °F - 66.2 °F 65% 29.77 in - East 12.7 mph - N/A   Clear
5:00 PM 77.0 °F - 68.0 °F 74% 29.74 in 6.2 mi East 15.0 mph - N/A   Partly Cloudy
6:00 PM 73 °F - 65 °F 69% 29.77 in 6 mi ESE 17.3 mph - -   Partly Cloudy
6:00 PM 73.4 °F - 68.0 °F 83% 29.74 in 6.2 mi East 17.3 mph - N/A   Mostly Cloudy
7:00 PM 71.6 °F - 66.2 °F 83% 29.74 in 6.2 mi East 17.3 mph - N/A   Mostly Cloudy
8:00 PM 71.6 °F - 66.2 °F 83% 29.74 in 6.2 mi East 15.0 mph - N/A   Mostly Cloudy
9:00 PM 70 °F - 64 °F 76% 29.79 in 6 mi ESE 15.0 mph - -   Mostly Cloudy
9:00 PM 69.8 °F - 64.4 °F 83% 29.77 in 6.2 mi East 15.0 mph - N/A   Mostly Cloudy
10:00 PM 69.8 °F - 66.2 °F 88% 29.77 in 6.2 mi East 15.0 mph - N/A   Scattered Clouds
11:00 PM 69.8 °F - 64.4 °F 83% 29.80 in - East 11.5 mph - N/A   Clear